{"data":{"norad_id":68547,"intl_designator":"2026-070F","name":"STARLINK-37245","alt_names":[],"object_type":"PAYLOAD","status":"ACTIVE","operator":null,"country":"US","launch_date":"2026-04-02","launch_site_code":"AFETR","launch_vehicle":null,"mission":null,"orbit_class":"UNKNOWN","rcs_meters":null,"size_class":null,"mass_kg":null,"dimensions":null,"purposes":["comms"],"wikipedia_slug":null,"has_3d_model":false,"image_url":null,"decayed_at":null,"tle_current":{"epoch":"2026-05-25T00:06:31.334976Z","epoch_age_seconds":68559,"freshness":"FRESH","line1":"1 68547U 26070F   26145.00452934  .00013779  00000+0  41824-3 0  9998","line2":"2 68547  53.1625   7.7752 0000750  78.7847 281.3240 15.34396882  8248","mean_motion":15.34396882,"eccentricity":7.5e-5,"inclination_deg":53.1625,"raan_deg":7.7752,"arg_perigee_deg":78.7847,"mean_anomaly_deg":281.324,"bstar":0.00041824,"rev_number":824,"period_min":93.847948786434,"perigee_km":462.19944386282,"apogee_km":463.22557128896,"semimajor_km":6840.8495075759,"source":"CELESTRAK","updated_at":"2026-05-25T13:38:21.960279Z"}}}